User: anonymous   Login
Location: Caltech
(34.1382°N, 118.1253°W)
Time: 17:30:35
(UTC-07:00)
Language:

Cosmos 1939 Rocket - Orbit

View from above orbital plane
View from above orbital plane
View from above satellite
View from above satellite

Ground track
Ground track

The orbit data is extracted from the following two-line orbital elements,

1 19046U 88032B   17179.58749558 +.00000045 +00000-0 +79968-5 0  9990
2 19046 097.5303 226.1830 0033727 293.7665 066.0024 15.02241332574064
Epoch (UTC): 28 June 2017 14:05:59
Eccentricity: 0.0033727
inclination: 97.5303°
perigee height: 536 km
apogee height: 583 km
right ascension of ascending node: 226.1830°
argument of perigee: 293.7665°
revolutions per day: 15.02241332
mean anomaly at epoch: 66.0024°
orbit number at epoch: 57406

The dashed part of the orbit path shows where the satellite is in the earth's shadow,  

DLR